Time,TemperatureF,DewpointF,PressureIn,WindDirection,WindDirectionDegrees,WindSpeedMPH,WindSpeedGustMPH,Humidity,HourlyPrecipIn,Conditions,Clouds,dailyrainin,SoftwareType,DateUTC
2013-03-21 00:01:00,27.6,21.9,26.28,West,270,11.8,18.1,79,0.00,,,0.00,WUHU216HW,2013-03-21 04:01:00,
2013-03-21 00:06:00,27.5,21.7,26.28,WNW,293,18.1,18.1,79,0.00,,,0.00,WUHU216HW,2013-03-21 04:06:00,
2013-03-21 00:11:00,27.3,21.6,26.28,NW,315,7.6,18.1,79,0.00,,,0.00,WUHU216HW,2013-03-21 04:11:00,
2013-03-21 00:16:00,27.1,21.4,26.27,WNW,293,6.9,12.3,79,0.00,,,0.00,WUHU216HW,2013-03-21 04:16:00,
2013-03-21 00:21:00,27.1,21.4,26.27,WNW,293,7.3,8.5,79,0.00,,,0.00,WUHU216HW,2013-03-21 04:21:00,
2013-03-21 00:26:00,26.9,21.2,26.26,WNW,293,7.3,10.0,79,0.00,,,0.00,WUHU216HW,2013-03-21 04:26:00,
2013-03-21 00:31:00,26.9,21.2,26.26,WNW,293,9.1,10.9,79,0.00,,,0.00,WUHU216HW,2013-03-21 04:31:00,
2013-03-21 00:36:00,26.7,21.0,26.26,NNW,338,10.5,10.9,79,0.00,,,0.00,WUHU216HW,2013-03-21 04:36:00,
2013-03-21 00:41:00,26.4,20.7,26.25,NW,315,12.5,17.4,79,0.00,,,0.00,WUHU216HW,2013-03-21 04:41:00,
2013-03-21 00:46:00,26.4,20.4,26.25,NNW,338,11.1,17.4,78,0.00,,,0.00,WUHU216HW,2013-03-21 04:46:00,
2013-03-21 00:52:00,26.0,19.4,26.25,NW,315,12.5,13.8,76,0.00,,,0.00,WUHU216HW,2013-03-21 04:52:00,
2013-03-21 00:57:00,25.7,19.1,26.25,WNW,293,14.3,14.3,76,0.00,,,0.00,WUHU216HW,2013-03-21 04:57:00,
2013-03-21 01:02:00,25.5,18.6,26.24,NW,315,14.0,15.6,75,0.00,,,0.00,WUHU216HW,2013-03-21 05:02:00,
2013-03-21 01:07:00,25.3,18.3,26.24,NNW,338,16.7,16.7,74,0.00,,,0.00,WUHU216HW,2013-03-21 05:07:00,
2013-03-21 01:12:00,24.9,17.4,26.24,NNW,338,18.3,21.9,73,0.00,,,0.00,WUHU216HW,2013-03-21 05:12:00,
2013-03-21 01:17:00,24.9,17.1,26.23,WNW,293,16.7,21.9,72,0.00,,,0.00,WUHU216HW,2013-03-21 05:17:00,
2013-03-21 01:22:00,24.6,16.8,26.23,NW,315,17.2,24.3,72,0.00,,,0.00,WUHU216HW,2013-03-21 05:22:00,
2013-03-21 01:27:00,24.6,16.4,26.23,NW,315,18.5,24.3,71,0.00,,,0.00,WUHU216HW,2013-03-21 05:27:00,
2013-03-21 01:32:00,24.4,15.6,26.23,NW,315,18.1,19.9,69,0.00,,,0.00,WUHU216HW,2013-03-21 05:32:00,
2013-03-21 01:37:00,24.0,14.9,26.22,NW,315,19.9,19.9,68,0.00,,,0.00,WUHU216HW,2013-03-21 05:37:00,
2013-03-21 01:42:00,24.0,14.6,26.22,WNW,293,18.1,23.7,67,0.00,,,0.00,WUHU216HW,2013-03-21 05:42:00,
2013-03-21 01:47:00,23.9,14.4,26.22,NW,315,19.0,23.7,67,0.00,,,0.00,WUHU216HW,2013-03-21 05:47:00,
2013-03-21 01:52:00,23.7,13.9,26.22,WNW,293,15.8,21.0,66,0.00,,,0.00,WUHU216HW,2013-03-21 05:52:00,
2013-03-21 01:57:00,23.5,13.7,26.22,WNW,293,21.9,21.9,66,0.00,,,0.00,WUHU216HW,2013-03-21 05:57:00,
2013-03-21 02:02:00,23.5,13.4,26.22,WNW,293,21.0,21.9,65,0.00,,,0.00,WUHU216HW,2013-03-21 06:02:00,
2013-03-21 02:07:00,23.3,13.2,26.21,WNW,293,18.5,21.0,65,0.00,,,0.00,WUHU216HW,2013-03-21 06:07:00,
2013-03-21 02:12:00,23.3,12.9,26.22,WNW,293,19.2,21.0,64,0.00,,,0.00,WUHU216HW,2013-03-21 06:12:00,
2013-03-21 02:17:00,23.1,12.7,26.21,NW,315,19.2,20.5,64,0.00,,,0.00,WUHU216HW,2013-03-21 06:17:00,
2013-03-21 02:22:00,23.1,12.7,26.21,NNW,338,18.1,20.5,64,0.00,,,0.00,WUHU216HW,2013-03-21 06:22:00,
2013-03-21 02:27:00,23.0,12.9,26.21,WNW,293,15.8,26.3,65,0.00,,,0.00,WUHU216HW,2013-03-21 06:27:00,
2013-03-21 02:32:00,23.0,13.2,26.22,WNW,293,20.1,26.3,66,0.00,,,0.00,WUHU216HW,2013-03-21 06:32:00,
2013-03-21 02:37:00,23.0,13.2,26.22,NW,315,14.0,22.8,66,0.00,,,0.00,WUHU216HW,2013-03-21 06:37:00,
2013-03-21 02:42:00,22.8,13.1,26.22,NW,315,18.7,20.8,66,0.00,,,0.00,WUHU216HW,2013-03-21 06:42:00,
2013-03-21 02:47:00,22.8,13.4,26.22,NW,315,17.6,22.5,67,0.00,,,0.00,WUHU216HW,2013-03-21 06:47:00,
2013-03-21 02:52:00,22.8,13.4,26.22,NW,315,16.1,22.5,66,0.00,,,0.00,WUHU216HW,2013-03-21 06:52:00,
2013-03-21 02:57:00,22.8,13.1,26.22,NW,315,16.5,18.7,66,0.00,,,0.00,WUHU216HW,2013-03-21 06:57:00,
2013-03-21 03:02:00,22.6,12.9,26.22,WNW,293,17.8,17.8,66,0.00,,,0.00,WUHU216HW,2013-03-21 07:02:00,
2013-03-21 03:07:00,22.6,12.9,26.22,NW,315,15.4,23.7,66,0.00,,,0.00,WUHU216HW,2013-03-21 07:07:00,
2013-03-21 03:12:00,22.4,12.3,26.22,WNW,293,19.0,23.7,65,0.00,,,0.00,WUHU216HW,2013-03-21 07:12:00,
2013-03-21 03:17:00,22.2,12.2,26.22,NW,315,11.8,19.0,65,0.00,,,0.00,WUHU216HW,2013-03-21 07:17:00,
2013-03-21 03:22:00,22.2,12.2,26.22,WNW,293,14.5,19.0,65,0.00,,,0.00,WUHU216HW,2013-03-21 07:22:00,
2013-03-21 03:27:00,22.1,11.7,26.21,NW,315,17.2,23.0,64,0.00,,,0.00,WUHU216HW,2013-03-21 07:27:00,
2013-03-21 03:32:00,21.9,11.7,26.21,WNW,293,13.6,23.0,64,0.00,,,0.00,WUHU216HW,2013-03-21 07:32:00,
2013-03-21 03:37:00,21.9,11.5,26.21,WNW,293,13.8,17.8,64,0.00,,,0.00,WUHU216HW,2013-03-21 07:37:00,
2013-03-21 03:42:00,21.9,11.5,26.21,West,270,12.3,17.8,64,0.00,,,0.00,WUHU216HW,2013-03-21 07:42:00,
2013-03-21 03:47:00,21.7,11.3,26.21,NW,315,17.0,17.0,64,0.00,,,0.00,WUHU216HW,2013-03-21 07:47:00,
2013-03-21 03:52:00,21.7,11.3,26.21,WNW,293,9.3,17.0,64,0.00,,,0.00,WUHU216HW,2013-03-21 07:52:00,
2013-03-21 03:58:00,21.7,11.3,26.21,NW,315,13.8,17.0,64,0.00,,,0.00,WUHU216HW,2013-03-21 07:58:00,
2013-03-21 04:03:00,21.5,11.1,26.21,WNW,293,14.5,14.5,64,0.00,,,0.00,WUHU216HW,2013-03-21 08:03:00,
2013-03-21 04:08:00,21.5,11.1,26.21,WNW,293,18.3,18.3,64,0.00,,,0.00,WUHU216HW,2013-03-21 08:08:00,
2013-03-21 04:13:00,21.3,11.0,26.21,NW,315,11.6,18.3,64,0.00,,,0.00,WUHU216HW,2013-03-21 08:13:00,
2013-03-21 04:18:00,21.3,11.0,26.21,NW,315,8.2,18.3,64,0.00,,,0.00,WUHU216HW,2013-03-21 08:18:00,
2013-03-21 04:23:00,21.3,11.0,26.20,WNW,293,11.6,11.8,64,0.00,,,0.00,WUHU216HW,2013-03-21 08:23:00,
2013-03-21 04:28:00,21.3,11.0,26.20,NW,315,7.8,11.6,64,0.00,,,0.00,WUHU216HW,2013-03-21 08:28:00,
2013-03-21 04:33:00,21.0,10.6,26.20,WNW,293,12.9,12.9,64,0.00,,,0.00,WUHU216HW,2013-03-21 08:33:00,
2013-03-21 04:38:00,21.0,11.0,26.20,NW,315,7.6,12.9,65,0.00,,,0.00,WUHU216HW,2013-03-21 08:38:00,
2013-03-21 04:43:00,21.0,11.0,26.20,NNW,338,9.6,10.5,65,0.00,,,0.00,WUHU216HW,2013-03-21 08:43:00,
2013-03-21 04:48:00,21.0,11.0,26.19,WNW,293,5.8,14.0,65,0.00,,,0.00,WUHU216HW,2013-03-21 08:48:00,
2013-03-21 04:53:00,21.0,11.3,26.19,NNW,338,10.7,14.0,65,0.00,,,0.00,WUHU216HW,2013-03-21 08:53:00,
2013-03-21 04:58:00,20.8,10.8,26.19,NW,315,10.9,10.9,65,0.00,,,0.00,WUHU216HW,2013-03-21 08:58:00,
2013-03-21 05:03:00,20.8,11.1,26.19,North,0,12.3,19.2,66,0.00,,,0.00,WUHU216HW,2013-03-21 09:03:00,
2013-03-21 05:08:00,20.4,10.8,26.19,NW,315,10.7,19.2,66,0.00,,,0.00,WUHU216HW,2013-03-21 09:08:00,
2013-03-21 05:13:00,20.4,10.8,26.19,NW,315,13.8,13.8,66,0.00,,,0.00,WUHU216HW,2013-03-21 09:13:00,
2013-03-21 05:18:00,20.3,10.9,26.19,NNW,338,12.5,13.8,67,0.00,,,0.00,WUHU216HW,2013-03-21 09:18:00,
2013-03-21 05:23:00,20.1,10.8,26.19,NW,315,10.0,16.5,67,0.00,,,0.00,WUHU216HW,2013-03-21 09:23:00,
2013-03-21 05:28:00,19.9,10.9,26.19,NNW,338,10.9,16.5,68,0.00,,,0.00,WUHU216HW,2013-03-21 09:28:00,
2013-03-21 05:33:00,19.9,10.9,26.19,NNW,338,10.9,12.7,68,0.00,,,0.00,WUHU216HW,2013-03-21 09:33:00,
2013-03-21 05:38:00,19.7,10.7,26.19,NW,315,13.8,19.6,68,0.00,,,0.00,WUHU216HW,2013-03-21 09:38:00,
2013-03-21 05:43:00,19.5,10.6,26.19,WNW,293,10.9,19.6,68,0.00,,,0.00,WUHU216HW,2013-03-21 09:43:00,
2013-03-21 05:48:00,19.5,10.9,26.19,NW,315,9.8,10.9,69,0.00,,,0.00,WUHU216HW,2013-03-21 09:48:00,
2013-03-21 05:53:00,19.5,10.9,26.18,WNW,293,9.3,15.4,69,0.00,,,0.00,WUHU216HW,2013-03-21 09:53:00,
2013-03-21 05:58:00,19.4,10.7,26.19,NNW,338,12.7,17.0,69,0.00,,,0.00,WUHU216HW,2013-03-21 09:58:00,
2013-03-21 06:03:00,19.2,10.6,26.19,NW,315,9.3,17.0,69,0.00,,,0.00,WUHU216HW,2013-03-21 10:03:00,
2013-03-21 06:08:00,19.2,10.6,26.19,NW,315,18.3,18.3,69,0.00,,,0.00,WUHU216HW,2013-03-21 10:08:00,
2013-03-21 06:13:00,19.0,10.4,26.19,NNW,338,12.5,19.0,69,0.00,,,0.00,WUHU216HW,2013-03-21 10:13:00,
2013-03-21 06:18:00,18.6,10.1,26.19,NW,315,12.9,19.0,69,0.00,,,0.00,WUHU216HW,2013-03-21 10:18:00,
2013-03-21 06:23:00,18.5,9.9,26.19,NNW,338,12.7,17.2,69,0.00,,,0.00,WUHU216HW,2013-03-21 10:23:00,
2013-03-21 06:28:00,18.3,9.8,26.19,NW,315,13.1,17.2,69,0.00,,,0.00,WUHU216HW,2013-03-21 10:28:00,
2013-03-21 06:33:00,18.3,9.8,26.19,NW,315,10.0,16.1,69,0.00,,,0.00,WUHU216HW,2013-03-21 10:33:00,
2013-03-21 06:38:00,18.1,9.6,26.19,WNW,293,14.9,16.1,69,0.00,,,0.00,WUHU216HW,2013-03-21 10:38:00,
2013-03-21 06:43:00,17.9,9.4,26.20,NW,315,12.5,14.9,69,0.00,,,0.00,WUHU216HW,2013-03-21 10:43:00,
2013-03-21 06:48:00,17.7,9.3,26.20,WNW,293,12.0,14.3,69,0.00,,,0.00,WUHU216HW,2013-03-21 10:48:00,
2013-03-21 06:53:00,17.7,9.3,26.20,NNW,338,14.3,14.3,69,0.00,,,0.00,WUHU216HW,2013-03-21 10:53:00,
2013-03-21 06:58:00,17.4,8.9,26.20,NW,315,11.4,14.3,69,0.00,,,0.00,WUHU216HW,2013-03-21 10:58:00,
2013-03-21 07:03:00,17.2,8.7,26.20,NW,315,8.5,17.0,69,0.00,,,0.00,WUHU216HW,2013-03-21 11:03:00,
2013-03-21 07:08:00,17.2,8.7,26.20,NW,315,12.0,17.0,69,0.00,,,0.00,WUHU216HW,2013-03-21 11:08:00,
2013-03-21 07:13:00,16.8,8.4,26.20,NW,315,11.6,13.6,69,0.00,,,0.00,WUHU216HW,2013-03-21 11:13:00,
2013-03-21 07:18:00,16.8,8.4,26.20,WNW,293,12.3,13.8,69,0.00,,,0.00,WUHU216HW,2013-03-21 11:18:00,
2013-03-21 07:23:00,16.7,8.2,26.21,WNW,293,14.0,15.2,69,0.00,,,0.00,WUHU216HW,2013-03-21 11:23:00,
2013-03-21 07:28:00,16.7,8.2,26.21,WNW,293,10.9,15.2,69,0.00,,,0.00,WUHU216HW,2013-03-21 11:28:00,
2013-03-21 07:33:00,16.5,8.0,26.21,WNW,293,9.6,19.2,69,0.00,,,0.00,WUHU216HW,2013-03-21 11:33:00,
2013-03-21 07:38:00,16.5,8.0,26.20,NNW,338,14.7,19.2,69,0.00,,,0.00,WUHU216HW,2013-03-21 11:38:00,
2013-03-21 07:44:00,16.3,7.8,26.20,WNW,293,15.6,16.5,69,0.00,,,0.00,WUHU216HW,2013-03-21 11:44:00,
2013-03-21 07:49:00,16.3,7.8,26.20,NW,315,12.9,16.5,69,0.00,,,0.00,WUHU216HW,2013-03-21 11:49:00,
2013-03-21 07:54:00,16.1,7.7,26.21,NW,315,8.2,15.6,69,0.00,,,0.00,WUHU216HW,2013-03-21 11:54:00,
2013-03-21 07:59:00,16.3,7.8,26.21,WNW,293,11.4,16.1,69,0.00,,,0.00,WUHU216HW,2013-03-21 11:59:00,
2013-03-21 08:04:00,15.9,7.5,26.21,NNW,338,12.3,16.1,69,0.00,,,0.00,WUHU216HW,2013-03-21 12:04:00,
2013-03-21 08:09:00,15.9,7.5,26.21,NW,315,17.8,17.8,69,0.00,,,0.00,WUHU216HW,2013-03-21 12:09:00,
2013-03-21 08:14:00,15.9,7.5,26.21,NW,315,11.6,17.8,69,0.00,,,0.00,WUHU216HW,2013-03-21 12:14:00,
2013-03-21 08:19:00,15.9,7.5,26.21,WNW,293,10.2,17.8,69,0.00,,,0.00,WUHU216HW,2013-03-21 12:19:00,
2013-03-21 08:24:00,15.9,7.5,26.21,WNW,293,23.0,23.0,69,0.00,,,0.00,WUHU216HW,2013-03-21 12:24:00,
2013-03-21 08:29:00,15.9,7.5,26.21,NW,315,10.2,23.0,69,0.00,,,0.00,WUHU216HW,2013-03-21 12:29:00,
2013-03-21 08:34:00,15.8,7.3,26.21,NW,315,9.6,18.7,69,0.00,,,0.00,WUHU216HW,2013-03-21 12:34:00,
2013-03-21 08:39:00,15.8,7.3,26.21,NNW,338,15.2,18.7,69,0.00,,,0.00,WUHU216HW,2013-03-21 12:39:00,
2013-03-21 08:44:00,15.6,7.1,26.21,WNW,293,10.5,15.2,69,0.00,,,0.00,WUHU216HW,2013-03-21 12:44:00,
2013-03-21 08:49:00,15.6,7.1,26.21,NW,315,10.5,15.2,69,0.00,,,0.00,WUHU216HW,2013-03-21 12:49:00,
2013-03-21 08:54:00,15.6,7.1,26.21,West,270,14.5,17.8,69,0.00,,,0.00,WUHU216HW,2013-03-21 12:54:00,
2013-03-21 08:59:00,15.6,7.1,26.21,NW,315,13.8,17.8,69,0.00,,,0.00,WUHU216HW,2013-03-21 12:59:00,
2013-03-21 09:04:00,15.9,7.5,26.21,NW,315,12.7,16.1,69,0.00,,,0.00,WUHU216HW,2013-03-21 13:04:00,
2013-03-21 09:09:00,15.9,7.5,26.21,NW,315,12.0,13.8,69,0.00,,,0.00,WUHU216HW,2013-03-21 13:09:00,
2013-03-21 09:15:00,16.1,7.7,26.21,NW,315,12.5,16.1,69,0.00,,,0.00,WUHU216HW,2013-03-21 13:15:00,
2013-03-21 09:20:00,16.1,7.3,26.21,NW,315,14.5,16.1,68,0.00,,,0.00,WUHU216HW,2013-03-21 13:20:00,
2013-03-21 09:25:00,16.1,7.3,26.21,NW,315,13.1,15.2,68,0.00,,,0.00,WUHU216HW,2013-03-21 13:25:00,
2013-03-21 09:30:00,16.3,7.2,26.21,WNW,293,11.8,15.6,67,0.00,,,0.00,WUHU216HW,2013-03-21 13:30:00,
2013-03-21 09:35:00,16.3,7.2,26.21,NNW,338,19.0,19.0,67,0.00,,,0.00,WUHU216HW,2013-03-21 13:35:00,
2013-03-21 09:40:00,16.3,7.2,26.22,NW,315,12.5,19.0,67,0.00,,,0.00,WUHU216HW,2013-03-21 13:40:00,
2013-03-21 09:45:00,16.5,7.3,26.22,WNW,293,14.9,14.9,67,0.00,,,0.00,WUHU216HW,2013-03-21 13:45:00,
2013-03-21 09:50:00,16.8,7.7,26.22,West,270,14.5,18.5,67,0.00,,,0.00,WUHU216HW,2013-03-21 13:50:00,
2013-03-21 09:55:00,17.0,7.5,26.22,NNW,338,12.0,18.5,66,0.00,,,0.00,WUHU216HW,2013-03-21 13:55:00,
2013-03-21 10:00:00,17.2,7.7,26.22,WNW,293,14.0,16.3,66,0.00,,,0.00,WUHU216HW,2013-03-21 14:00:00,
2013-03-21 10:05:00,17.4,7.9,26.23,NW,315,8.7,16.3,66,0.00,,,0.00,WUHU216HW,2013-03-21 14:05:00,
2013-03-21 10:10:00,17.7,7.9,26.23,West,270,8.7,14.7,65,0.00,,,0.00,WUHU216HW,2013-03-21 14:10:00,
2013-03-21 10:15:00,17.7,7.6,26.23,NW,315,16.1,17.6,64,0.00,,,0.00,WUHU216HW,2013-03-21 14:15:00,
2013-03-21 10:20:00,17.7,7.2,26.23,North,0,12.5,17.6,63,0.00,,,0.00,WUHU216HW,2013-03-21 14:20:00,
2013-03-21 10:25:00,17.7,7.2,26.23,NW,315,8.9,16.1,63,0.00,,,0.00,WUHU216HW,2013-03-21 14:25:00,
2013-03-21 10:30:00,18.1,7.5,26.23,NNW,338,14.3,14.3,63,0.00,,,0.00,WUHU216HW,2013-03-21 14:30:00,
2013-03-21 10:35:00,18.1,6.9,26.23,NW,315,14.3,14.9,61,0.00,,,0.00,WUHU216HW,2013-03-21 14:35:00,
2013-03-21 10:40:00,17.9,6.4,26.23,NW,315,21.0,21.0,60,0.00,,,0.00,WUHU216HW,2013-03-21 14:40:00,
2013-03-21 10:45:00,18.1,6.1,26.23,NW,315,18.7,21.0,59,0.00,,,0.00,WUHU216HW,2013-03-21 14:45:00,
2013-03-21 10:50:00,18.3,6.3,26.23,NW,315,20.8,21.0,59,0.00,,,0.00,WUHU216HW,2013-03-21 14:50:00,
2013-03-21 10:55:00,18.3,6.3,26.23,NW,315,17.0,20.8,59,0.00,,,0.00,WUHU216HW,2013-03-21 14:55:00,
2013-03-21 11:00:00,18.5,6.4,26.23,NW,315,17.4,20.8,59,0.00,,,0.00,WUHU216HW,2013-03-21 15:00:00,
2013-03-21 11:05:00,18.6,6.6,26.23,NW,315,12.7,20.5,59,0.00,,,0.00,WUHU216HW,2013-03-21 15:05:00,
2013-03-21 11:10:00,19.0,6.9,26.22,NNW,338,9.8,15.4,59,0.00,,,0.00,WUHU216HW,2013-03-21 15:10:00,
2013-03-21 11:15:00,19.2,7.1,26.22,West,270,8.5,12.7,59,0.00,,,0.00,WUHU216HW,2013-03-21 15:15:00,
2013-03-21 11:20:00,19.5,7.4,26.22,NNW,338,14.0,14.0,59,0.00,,,0.00,WUHU216HW,2013-03-21 15:20:00,
2013-03-21 11:25:00,19.5,7.4,26.23,North,0,15.2,15.2,59,0.00,,,0.00,WUHU216HW,2013-03-21 15:25:00,
2013-03-21 11:30:00,19.5,7.0,26.22,NNW,338,18.7,18.7,58,0.00,,,0.00,WUHU216HW,2013-03-21 15:30:00,
2013-03-21 11:35:00,19.5,7.0,26.23,NW,315,21.0,21.0,58,0.00,,,0.00,WUHU216HW,2013-03-21 15:35:00,
2013-03-21 11:40:00,19.9,7.4,26.23,NNW,338,12.5,21.0,58,0.00,,,0.00,WUHU216HW,2013-03-21 15:40:00,
2013-03-21 11:45:00,19.9,7.0,26.23,NW,315,16.7,21.0,57,0.00,,,0.00,WUHU216HW,2013-03-21 15:45:00,
2013-03-21 11:50:00,19.9,6.6,26.23,NNW,338,16.3,17.2,56,0.00,,,0.00,WUHU216HW,2013-03-21 15:50:00,
2013-03-21 11:55:00,19.5,6.2,26.24,NW,315,15.6,17.8,56,0.00,,,0.00,WUHU216HW,2013-03-21 15:55:00,
2013-03-21 12:00:00,19.5,6.2,26.24,NNW,338,18.3,18.3,56,0.00,,,0.00,WUHU216HW,2013-03-21 16:00:00,
2013-03-21 12:05:00,19.5,6.6,26.24,NW,315,16.7,19.2,57,0.00,,,0.00,WUHU216HW,2013-03-21 16:05:00,
2013-03-21 12:10:00,19.9,6.6,26.24,NW,315,13.8,19.2,56,0.00,,,0.00,WUHU216HW,2013-03-21 16:10:00,
2013-03-21 12:15:00,20.1,7.1,26.24,NNW,338,12.9,16.7,57,0.00,,,0.00,WUHU216HW,2013-03-21 16:15:00,
2013-03-21 12:20:00,20.1,6.8,26.24,NW,315,20.8,20.8,56,0.00,,,0.00,WUHU216HW,2013-03-21 16:20:00,
2013-03-21 12:25:00,20.1,6.8,26.24,NNW,338,14.3,20.8,56,0.00,,,0.00,WUHU216HW,2013-03-21 16:25:00,
2013-03-21 12:30:00,20.4,7.5,26.23,NNW,338,15.2,20.8,57,0.00,,,0.00,WUHU216HW,2013-03-21 16:30:00,
2013-03-21 12:35:00,20.8,7.4,26.24,NW,315,8.7,18.1,56,0.00,,,0.00,WUHU216HW,2013-03-21 16:35:00,
2013-03-21 12:40:00,20.4,6.7,26.24,NW,315,18.7,18.7,55,0.00,,,0.00,WUHU216HW,2013-03-21 16:40:00,
2013-03-21 12:45:00,20.4,7.1,26.25,NW,315,10.5,18.7,56,0.00,,,0.00,WUHU216HW,2013-03-21 16:45:00,
2013-03-21 12:51:00,20.1,6.8,26.25,NW,315,14.3,21.6,56,0.00,,,0.00,WUHU216HW,2013-03-21 16:51:00,
2013-03-21 12:56:00,20.4,7.5,26.25,WNW,293,10.5,21.6,57,0.00,,,0.00,WUHU216HW,2013-03-21 16:56:00,
2013-03-21 13:01:00,21.0,8.0,26.25,WNW,293,16.7,16.7,57,0.00,,,0.00,WUHU216HW,2013-03-21 17:01:00,
2013-03-21 13:06:00,21.3,8.4,26.24,NW,315,24.3,24.3,57,0.00,,,0.00,WUHU216HW,2013-03-21 17:06:00,
2013-03-21 13:11:00,21.3,7.5,26.25,NW,315,16.7,24.3,55,0.00,,,0.00,WUHU216HW,2013-03-21 17:11:00,
2013-03-21 13:16:00,21.0,7.6,26.24,WNW,293,18.5,19.2,56,0.00,,,0.00,WUHU216HW,2013-03-21 17:16:00,
2013-03-21 13:21:00,20.8,7.4,26.25,NW,315,14.0,19.2,56,0.00,,,0.00,WUHU216HW,2013-03-21 17:21:00,
2013-03-21 13:26:00,20.4,7.1,26.25,NW,315,13.4,21.2,56,0.00,,,0.00,WUHU216HW,2013-03-21 17:26:00,
2013-03-21 13:31:00,20.8,7.8,26.25,NW,315,12.7,21.2,57,0.00,,,0.00,WUHU216HW,2013-03-21 17:31:00,
2013-03-21 13:36:00,21.0,8.0,26.25,NNW,338,9.6,13.8,57,0.00,,,0.00,WUHU216HW,2013-03-21 17:36:00,
2013-03-21 13:41:00,21.3,8.4,26.24,WNW,293,12.3,14.3,57,0.00,,,0.00,WUHU216HW,2013-03-21 17:41:00,
2013-03-21 13:46:00,21.3,8.4,26.24,NW,315,16.5,16.5,57,0.00,,,0.00,WUHU216HW,2013-03-21 17:46:00,
2013-03-21 13:52:00,21.3,8.4,26.24,WNW,293,8.5,16.5,57,0.00,,,0.00,WUHU216HW,2013-03-21 17:52:00,
2013-03-21 13:57:00,21.3,8.4,26.25,NW,315,7.3,16.5,57,0.00,,,0.00,WUHU216HW,2013-03-21 17:57:00,
2013-03-21 14:02:00,21.7,8.9,26.25,NW,315,6.7,14.3,58,0.00,,,0.00,WUHU216HW,2013-03-21 18:02:00,
2013-03-21 14:07:00,21.7,9.1,26.25,NW,315,9.8,14.3,58,0.00,,,0.00,WUHU216HW,2013-03-21 18:07:00,
2013-03-21 14:12:00,21.9,9.3,26.24,NNW,338,12.9,14.3,58,0.00,,,0.00,WUHU216HW,2013-03-21 18:12:00,
2013-03-21 14:17:00,21.9,9.3,26.25,NW,315,12.0,14.3,58,0.00,,,0.00,WUHU216HW,2013-03-21 18:17:00,
2013-03-21 14:22:00,21.5,8.5,26.25,WNW,293,6.4,13.8,57,0.00,,,0.00,WUHU216HW,2013-03-21 18:22:00,
2013-03-21 14:27:00,21.5,8.9,26.24,NNW,338,8.2,13.1,58,0.00,,,0.00,WUHU216HW,2013-03-21 18:27:00,
2013-03-21 14:32:00,21.9,9.3,26.24,West,270,10.2,15.4,58,0.00,,,0.00,WUHU216HW,2013-03-21 18:32:00,
2013-03-21 14:37:00,21.9,9.3,26.24,WNW,293,21.6,21.6,58,0.00,,,0.00,WUHU216HW,2013-03-21 18:37:00,
2013-03-21 14:42:00,22.2,10.0,26.24,West,270,12.9,21.6,59,0.00,,,0.00,WUHU216HW,2013-03-21 18:42:00,
2013-03-21 14:47:00,22.4,10.2,26.25,NNW,338,12.9,17.4,59,0.00,,,0.00,WUHU216HW,2013-03-21 18:47:00,
2013-03-21 14:52:00,22.6,10.3,26.24,NW,315,15.6,15.6,59,0.00,,,0.00,WUHU216HW,2013-03-21 18:52:00,
2013-03-21 14:57:00,22.2,9.6,26.24,WNW,293,8.9,15.6,58,0.00,,,0.00,WUHU216HW,2013-03-21 18:57:00,
2013-03-21 15:02:00,22.2,10.0,26.24,NW,315,12.9,13.8,59,0.00,,,0.00,WUHU216HW,2013-03-21 19:02:00,
2013-03-21 15:07:00,22.1,9.5,26.24,NW,315,12.9,13.4,58,0.00,,,0.00,WUHU216HW,2013-03-21 19:07:00,
2013-03-21 15:12:00,21.9,9.3,26.25,NW,315,12.0,13.4,58,0.00,,,0.00,WUHU216HW,2013-03-21 19:12:00,
2013-03-21 15:17:00,21.9,9.3,26.24,NNW,338,12.0,13.1,58,0.00,,,0.00,WUHU216HW,2013-03-21 19:17:00,
2013-03-21 15:22:00,21.9,9.3,26.24,NNW,338,8.9,18.1,58,0.00,,,0.00,WUHU216HW,2013-03-21 19:22:00,
2013-03-21 15:27:00,22.1,9.8,26.24,NW,315,10.0,18.1,59,0.00,,,0.00,WUHU216HW,2013-03-21 19:27:00,
2013-03-21 15:32:00,22.4,10.2,26.24,WSW,248,12.3,17.6,59,0.00,,,0.00,WUHU216HW,2013-03-21 19:32:00,
2013-03-21 15:37:00,22.4,10.2,26.24,WNW,293,11.4,17.6,59,0.00,,,0.00,WUHU216HW,2013-03-21 19:37:00,
2013-03-21 15:42:00,22.2,9.6,26.23,NW,315,14.7,16.1,58,0.00,,,0.00,WUHU216HW,2013-03-21 19:42:00,
2013-03-21 15:47:00,21.9,9.3,26.24,NNW,338,12.3,16.5,58,0.00,,,0.00,WUHU216HW,2013-03-21 19:47:00,
2013-03-21 15:52:00,21.9,9.3,26.24,NW,315,21.6,21.6,58,0.00,,,0.00,WUHU216HW,2013-03-21 19:52:00,
2013-03-21 15:57:00,21.7,9.5,26.24,NW,315,19.0,21.6,59,0.00,,,0.00,WUHU216HW,2013-03-21 19:57:00,
2013-03-21 16:02:00,21.7,9.5,26.24,WNW,293,16.3,19.0,59,0.00,,,0.00,WUHU216HW,2013-03-21 20:02:00,
2013-03-21 16:08:00,21.5,9.8,26.25,NNW,338,15.2,19.0,60,0.00,,,0.00,WUHU216HW,2013-03-21 20:08:00,
2013-03-21 16:13:00,21.5,10.1,26.25,NW,315,15.4,17.2,61,0.00,,,0.00,WUHU216HW,2013-03-21 20:13:00,
2013-03-21 16:18:00,21.3,10.0,26.24,NW,315,17.8,22.8,61,0.00,,,0.00,WUHU216HW,2013-03-21 20:18:00,
2013-03-21 16:23:00,21.3,10.0,26.25,NNW,338,17.6,22.8,61,0.00,,,0.00,WUHU216HW,2013-03-21 20:23:00,
2013-03-21 16:28:00,21.3,10.3,26.25,NNW,338,13.4,20.1,62,0.00,,,0.00,WUHU216HW,2013-03-21 20:28:00,
2013-03-21 16:33:00,21.3,10.3,26.24,WNW,293,18.7,18.7,62,0.00,,,0.00,WUHU216HW,2013-03-21 20:33:00,
2013-03-21 16:38:00,21.3,10.3,26.24,WNW,293,19.2,19.2,62,0.00,,,0.00,WUHU216HW,2013-03-21 20:38:00,
2013-03-21 16:43:00,21.3,10.3,26.25,NW,315,11.6,19.2,62,0.00,,,0.00,WUHU216HW,2013-03-21 20:43:00,
2013-03-21 16:48:00,21.5,10.5,26.25,WSW,248,13.4,19.2,62,0.00,,,0.00,WUHU216HW,2013-03-21 20:48:00,
2013-03-21 16:53:00,22.2,10.8,26.25,WNW,293,19.2,19.2,61,0.00,,,0.00,WUHU216HW,2013-03-21 20:53:00,
2013-03-21 16:58:00,22.4,10.6,26.24,NW,315,21.2,23.7,60,0.00,,,0.00,WUHU216HW,2013-03-21 20:58:00,
2013-03-21 17:03:00,22.8,10.9,26.24,WNW,293,18.1,23.7,60,0.00,,,0.00,WUHU216HW,2013-03-21 21:03:00,
2013-03-21 17:08:00,22.8,10.1,26.25,NW,315,10.7,18.1,58,0.00,,,0.00,WUHU216HW,2013-03-21 21:08:00,
2013-03-21 17:13:00,22.8,10.1,26.24,NNW,338,18.7,19.0,58,0.00,,,0.00,WUHU216HW,2013-03-21 21:13:00,
2013-03-21 17:18:00,23.1,10.0,26.24,NW,315,18.3,19.0,57,0.00,,,0.00,WUHU216HW,2013-03-21 21:18:00,
2013-03-21 17:23:00,23.1,10.0,26.24,North,0,20.5,20.8,57,0.00,,,0.00,WUHU216HW,2013-03-21 21:23:00,
2013-03-21 17:28:00,23.0,9.5,26.24,NW,315,16.7,20.8,56,0.00,,,0.00,WUHU216HW,2013-03-21 21:28:00,
2013-03-21 17:33:00,23.1,10.0,26.24,WSW,248,15.2,21.9,57,0.00,,,0.00,WUHU216HW,2013-03-21 21:33:00,
2013-03-21 17:38:00,23.5,10.4,26.24,WSW,248,27.2,27.2,57,0.00,,,0.00,WUHU216HW,2013-03-21 21:38:00,
2013-03-21 17:43:00,23.5,10.0,26.24,NW,315,19.0,27.2,56,0.00,,,0.00,WUHU216HW,2013-03-21 21:43:00,
2013-03-21 17:48:00,23.5,9.6,26.24,WSW,248,15.6,23.9,55,0.00,,,0.00,WUHU216HW,2013-03-21 21:48:00,
2013-03-21 17:53:00,23.5,9.6,26.25,WSW,248,13.6,23.9,55,0.00,,,0.00,WUHU216HW,2013-03-21 21:53:00,
2013-03-21 17:58:00,23.5,9.6,26.25,WSW,248,9.1,17.2,55,0.00,,,0.00,WUHU216HW,2013-03-21 21:58:00,
2013-03-21 18:04:00,23.9,9.9,26.25,NW,315,12.7,17.4,55,0.00,,,0.00,WUHU216HW,2013-03-21 22:04:00,
2013-03-21 18:09:00,23.9,9.9,26.26,NNW,338,9.3,17.4,55,0.00,,,0.00,WUHU216HW,2013-03-21 22:09:00,
2013-03-21 18:14:00,23.9,9.9,26.24,NNW,338,17.8,17.8,55,0.00,,,0.00,WUHU216HW,2013-03-21 22:14:00,
2013-03-21 18:19:00,23.5,9.2,26.25,NW,315,17.4,22.5,54,0.00,,,0.00,WUHU216HW,2013-03-21 22:19:00,
2013-03-21 18:24:00,23.3,9.4,26.25,WSW,248,14.9,22.5,55,0.00,,,0.00,WUHU216HW,2013-03-21 22:24:00,
2013-03-21 18:29:00,23.3,9.4,26.25,WSW,248,13.6,19.2,55,0.00,,,0.00,WUHU216HW,2013-03-21 22:29:00,
2013-03-21 18:34:00,23.3,9.4,26.26,NW,315,15.8,15.8,55,0.00,,,0.00,WUHU216HW,2013-03-21 22:34:00,
2013-03-21 18:39:00,23.3,9.4,26.25,NW,315,28.1,28.1,55,0.00,,,0.00,WUHU216HW,2013-03-21 22:39:00,
2013-03-21 18:44:00,23.1,8.9,26.26,NNW,338,14.5,28.1,54,0.00,,,0.00,WUHU216HW,2013-03-21 22:44:00,
2013-03-21 18:49:00,23.1,9.3,26.26,NW,315,15.2,21.9,55,0.00,,,0.00,WUHU216HW,2013-03-21 22:49:00,
2013-03-21 18:54:00,23.1,9.3,26.26,WNW,293,15.4,15.4,55,0.00,,,0.00,WUHU216HW,2013-03-21 22:54:00,
2013-03-21 18:59:00,23.0,8.7,26.26,NW,315,23.0,23.0,54,0.00,,,0.00,WUHU216HW,2013-03-21 22:59:00,
2013-03-21 19:04:00,22.8,8.5,26.26,NNW,338,17.4,23.0,54,0.00,,,0.00,WUHU216HW,2013-03-21 23:04:00,
2013-03-21 19:09:00,22.8,8.5,26.26,NW,315,15.8,19.9,54,0.00,,,0.00,WUHU216HW,2013-03-21 23:09:00,
2013-03-21 19:14:00,22.6,8.3,26.26,WNW,293,21.9,21.9,54,0.00,,,0.00,WUHU216HW,2013-03-21 23:14:00,
2013-03-21 19:19:00,22.4,8.6,26.26,NW,315,14.9,21.9,55,0.00,,,0.00,WUHU216HW,2013-03-21 23:19:00,
2013-03-21 19:24:00,22.2,8.4,26.26,NW,315,14.5,20.3,55,0.00,,,0.00,WUHU216HW,2013-03-21 23:24:00,
2013-03-21 19:29:00,22.2,8.0,26.27,NW,315,16.5,21.6,54,0.00,,,0.00,WUHU216HW,2013-03-21 23:29:00,
2013-03-21 19:34:00,21.9,8.1,26.26,WNW,293,17.8,21.6,55,0.00,,,0.00,WUHU216HW,2013-03-21 23:34:00,
2013-03-21 19:39:00,21.9,8.1,26.27,NNE,23,21.9,21.9,55,0.00,,,0.00,WUHU216HW,2013-03-21 23:39:00,
2013-03-21 19:44:00,21.7,7.9,26.27,NNW,338,12.0,21.9,55,0.00,,,0.00,WUHU216HW,2013-03-21 23:44:00,
2013-03-21 19:49:00,21.5,8.1,26.27,NW,315,12.7,21.9,56,0.00,,,0.00,WUHU216HW,2013-03-21 23:49:00,
2013-03-21 19:54:00,21.3,8.0,26.28,WNW,293,12.0,18.7,56,0.00,,,0.00,WUHU216HW,2013-03-21 23:54:00,
2013-03-21 19:59:00,21.3,8.0,26.28,NW,315,12.7,18.7,56,0.00,,,0.00,WUHU216HW,2013-03-21 23:59:00,
2013-03-21 20:04:00,21.3,8.0,26.28,NNW,338,11.4,12.7,56,0.00,,,0.00,WUHU216HW,2013-03-22 00:04:00,
2013-03-21 20:09:00,21.0,8.0,26.28,NNW,338,14.5,14.5,57,0.00,,,0.00,WUHU216HW,2013-03-22 00:09:00,
2013-03-21 20:14:00,21.0,8.0,26.29,NW,315,10.7,14.5,57,0.00,,,0.00,WUHU216HW,2013-03-22 00:14:00,
2013-03-21 20:19:00,20.8,7.8,26.29,NNW,338,10.9,14.5,57,0.00,,,0.00,WUHU216HW,2013-03-22 00:19:00,
2013-03-21 20:24:00,20.8,7.8,26.29,NNW,338,9.8,11.6,57,0.00,,,0.00,WUHU216HW,2013-03-22 00:24:00,
2013-03-21 20:29:00,20.8,7.8,26.29,NNW,338,13.8,13.8,57,0.00,,,0.00,WUHU216HW,2013-03-22 00:29:00,
2013-03-21 20:34:00,20.4,7.5,26.30,WNW,293,11.1,13.8,57,0.00,,,0.00,WUHU216HW,2013-03-22 00:34:00,
2013-03-21 20:40:00,20.4,7.5,26.29,NW,315,8.2,13.8,57,0.00,,,0.00,WUHU216HW,2013-03-22 00:40:00,
2013-03-21 20:45:00,20.4,7.5,26.30,NW,315,12.3,12.3,57,0.00,,,0.00,WUHU216HW,2013-03-22 00:45:00,
2013-03-21 20:50:00,20.4,7.5,26.30,NW,315,12.9,12.9,57,0.00,,,0.00,WUHU216HW,2013-03-22 00:50:00,
2013-03-21 20:55:00,20.1,7.1,26.30,NW,315,10.9,13.6,57,0.00,,,0.00,WUHU216HW,2013-03-22 00:55:00,
2013-03-21 21:00:00,20.1,7.1,26.30,NW,315,10.5,15.6,57,0.00,,,0.00,WUHU216HW,2013-03-22 01:00:00,
2013-03-21 21:05:00,19.9,7.4,26.30,NNW,338,16.1,16.1,58,0.00,,,0.00,WUHU216HW,2013-03-22 01:05:00,
2013-03-21 21:10:00,19.9,7.4,26.30,NW,315,10.0,16.1,58,0.00,,,0.00,WUHU216HW,2013-03-22 01:10:00,
2013-03-21 21:15:00,19.5,7.4,26.30,NW,315,14.5,14.5,59,0.00,,,0.00,WUHU216HW,2013-03-22 01:15:00,
2013-03-21 21:20:00,19.5,7.4,26.30,NW,315,17.2,17.2,59,0.00,,,0.00,WUHU216HW,2013-03-22 01:20:00,
2013-03-21 21:25:00,19.5,7.4,26.30,North,0,19.4,19.4,59,0.00,,,0.00,WUHU216HW,2013-03-22 01:25:00,
2013-03-21 21:30:00,19.2,7.1,26.30,NW,315,12.5,19.4,59,0.00,,,0.00,WUHU216HW,2013-03-22 01:30:00,
2013-03-21 21:35:00,19.2,7.5,26.30,NW,315,13.8,19.4,60,0.00,,,0.00,WUHU216HW,2013-03-22 01:35:00,
2013-03-21 21:40:00,19.2,7.5,26.30,NNW,338,15.4,15.4,60,0.00,,,0.00,WUHU216HW,2013-03-22 01:40:00,
2013-03-21 21:45:00,19.0,7.7,26.30,NW,315,14.5,16.1,61,0.00,,,0.00,WUHU216HW,2013-03-22 01:45:00,
2013-03-21 21:50:00,18.8,7.5,26.31,NW,315,10.9,17.6,61,0.00,,,0.00,WUHU216HW,2013-03-22 01:50:00,
2013-03-21 21:55:00,18.6,7.3,26.32,NW,315,8.2,17.6,61,0.00,,,0.00,WUHU216HW,2013-03-22 01:55:00,
2013-03-21 22:00:00,18.6,7.3,26.32,NW,315,13.6,13.6,61,0.00,,,0.00,WUHU216HW,2013-03-22 02:00:00,
2013-03-21 22:05:00,18.6,7.3,26.32,NW,315,9.3,13.6,61,0.00,,,0.00,WUHU216HW,2013-03-22 02:05:00,
2013-03-21 22:10:00,18.5,7.2,26.32,NNW,338,12.0,12.0,61,0.00,,,0.00,WUHU216HW,2013-03-22 02:10:00,
2013-03-21 22:15:00,18.5,7.5,26.32,NW,315,7.8,12.0,62,0.00,,,0.00,WUHU216HW,2013-03-22 02:15:00,
2013-03-21 22:20:00,18.3,7.0,26.32,WNW,293,12.9,12.9,61,0.00,,,0.00,WUHU216HW,2013-03-22 02:20:00,
2013-03-21 22:25:00,18.3,7.4,26.32,NNW,338,12.7,16.3,62,0.00,,,0.00,WUHU216HW,2013-03-22 02:25:00,
2013-03-21 22:30:00,18.3,7.4,26.32,NNW,338,11.1,16.3,62,0.00,,,0.00,WUHU216HW,2013-03-22 02:30:00,
2013-03-21 22:35:00,18.1,7.2,26.32,NNW,338,14.3,14.3,62,0.00,,,0.00,WUHU216HW,2013-03-22 02:35:00,
2013-03-21 22:40:00,17.9,7.4,26.32,NNW,338,12.9,14.3,63,0.00,,,0.00,WUHU216HW,2013-03-22 02:40:00,
2013-03-21 22:45:00,17.9,7.4,26.32,NW,315,13.1,14.3,63,0.00,,,0.00,WUHU216HW,2013-03-22 02:45:00,
2013-03-21 22:50:00,17.7,7.2,26.33,NW,315,9.3,13.1,63,0.00,,,0.00,WUHU216HW,2013-03-22 02:50:00,
2013-03-21 22:55:00,17.7,7.2,26.33,NW,315,13.1,13.1,63,0.00,,,0.00,WUHU216HW,2013-03-22 02:55:00,
2013-03-21 23:00:00,17.7,7.6,26.32,NNW,338,14.3,14.7,64,0.00,,,0.00,WUHU216HW,2013-03-22 03:00:00,
2013-03-21 23:05:00,17.6,7.4,26.33,NW,315,9.8,14.7,64,0.00,,,0.00,WUHU216HW,2013-03-22 03:05:00,
2013-03-21 23:10:00,17.4,6.9,26.32,NW,315,7.1,13.6,63,0.00,,,0.00,WUHU216HW,2013-03-22 03:10:00,
2013-03-21 23:15:00,17.4,7.2,26.33,NW,315,11.4,12.0,64,0.00,,,0.00,WUHU216HW,2013-03-22 03:15:00,
2013-03-21 23:20:00,17.4,7.2,26.33,NNW,338,11.6,12.0,64,0.00,,,0.00,WUHU216HW,2013-03-22 03:20:00,
2013-03-21 23:25:00,17.4,7.2,26.33,NW,315,7.6,11.6,64,0.00,,,0.00,WUHU216HW,2013-03-22 03:25:00,
2013-03-21 23:30:00,17.2,7.0,26.33,WNW,293,10.0,11.6,64,0.00,,,0.00,WUHU216HW,2013-03-22 03:30:00,
2013-03-21 23:35:00,17.2,7.0,26.33,NW,315,6.9,10.0,64,0.00,,,0.00,WUHU216HW,2013-03-22 03:35:00,
2013-03-21 23:40:00,17.0,7.2,26.34,NW,315,7.6,10.0,65,0.00,,,0.00,WUHU216HW,2013-03-22 03:40:00,
2013-03-21 23:45:00,16.8,7.0,26.34,NW,315,5.5,10.5,65,0.00,,,0.00,WUHU216HW,2013-03-22 03:45:00,
2013-03-21 23:51:00,16.8,7.0,26.34,WNW,293,6.9,10.5,65,0.00,,,0.00,WUHU216HW,2013-03-22 03:51:00,
2013-03-21 23:56:00,16.8,7.0,26.34,NW,315,7.1,12.5,65,0.00,,,0.00,WUHU216HW,2013-03-22 03:56:00,